This is the latest recevied weather packets stored in our database for station/object DL6MM-4. If no packets are shown the sender has not sent any weather packets the latest 1 day(s).
| Time | Temp. | Humidity | Pressure | Rain* | Wind** | Luminosity | Snow |
|---|---|---|---|---|---|---|---|
| 1777975156 | 17.78° C | 78% | 1007.7 hPa | 0 mm | 0 m/s | - | - |
| 1777974556 | 17.22° C | 80% | 1007.7 hPa | 0 mm | 0 m/s | - | - |
| 1777973956 | 17.78° C | 80% | 1007.7 hPa | 0 mm | 0 m/s | - | - |
| 1777973356 | 17.22° C | 84% | 1007.7 hPa | 0 mm | 0 m/s | - | - |
| 1777972756 | 17.22° C | 85% | 1007.9 hPa | 0 mm | 0 m/s | - | - |
| 1777972156 | 16.67° C | 86% | 1008 hPa | 0 mm | 0 m/s | - | - |
| 1777971556 | 16.11° C | 87% | 1008 hPa | 0 mm | 0 m/s | - | - |
| 1777970956 | 15.56° C | 87% | 1008.1 hPa | 0 mm | 0 m/s | - | - |
| 1777970356 | 15.56° C | 86% | 1008.1 hPa | 0 mm | 0 m/s | - | - |
| 1777969756 | 15.56° C | 84% | 1008 hPa | 0 mm | 0 m/s | - | - |
| 1777969156 | 15° C | 83% | 1008 hPa | 0 mm | 0 m/s | - | - |
| 1777968556 | 15° C | 82% | 1008.1 hPa | 0 mm | 0 m/s | - | - |
| 1777967956 | 15° C | 81% | 1008.1 hPa | 0 mm | 0 m/s | - | - |
| 1777967356 | 15° C | 80% | 1008.2 hPa | 0 mm | 0 m/s | - | - |
| 1777966756 | 14.44° C | 80% | 1008.2 hPa | 0 mm | 0 m/s | - | - |
| 1777966156 | 13.89° C | 81% | 1008.2 hPa | 0 mm | 0 m/s | - | - |
| 1777965556 | 13.89° C | 80% | 1008.4 hPa | 0 mm | 0 m/s | - | - |
| 1777964958 | 13.33° C | 80% | 1008.4 hPa | 0 mm | 0 m/s | - | - |
| 1777964356 | 13.33° C | 80% | 1008.5 hPa | 0 mm | 0 m/s | - | - |
| 1777963756 | 13.33° C | 80% | 1008.4 hPa | 0 mm | 0 m/s | - | - |
| 1777963157 | 13.33° C | 81% | 1008.4 hPa | 0 mm | 0 m/s | - | - |
| 1777962556 | 13.33° C | 80% | 1008.4 hPa | 0 mm | 0 m/s | - | - |
| 1777961956 | 13.33° C | 80% | 1008.5 hPa | 0 mm | 0 m/s | - | - |
| 1777961356 | 13.33° C | 80% | 1008.5 hPa | 0 mm | 0 m/s | - | - |
| 1777960756 | 13.33° C | 80% | 1008.5 hPa | 0 mm | 0 m/s | - | - |
* Rain latest hour (hover to see other rain measurements)
** Current wind speed in m/s (hover to see current wind gust speed)